UAL1287 KEWR-KATL

Flight info

Callsign UAL1287
Flight time 1h 51m
Altitude 38000
Route LANNA J48 MOL FLASK OZZZI2
Aircraft B77W/H-SDE1E2E3FGHIJ2J3J4J5M1RWXY/LB1D1

Departure

Time 2026-05-08 00:10
Airport Newark Liberty International Airport (KEWR)

Arrival

Time 2026-05-08 02:02
Airport Hartsfield Jackson Atlanta International Airport (KATL)
Time Latitude Longitude Altitude Speed Heading
2026-05-07 23:46 40.69400 -74.17362 27 ft 0 kts 13°
2026-05-07 23:55 40.69398 -74.17362 27 ft 2 kts 13°
2026-05-07 23:55 40.69379 -74.17368 26 ft 4 kts 10°
2026-05-07 23:55 40.69361 -74.17371 26 ft 4 kts 331°
2026-05-07 23:56 40.69348 -74.17355 25 ft 4 kts 324°
2026-05-07 23:56 40.69336 -74.17346 25 ft 4 kts 12°
2026-05-07 23:56 40.69332 -74.17344 26 ft 4 kts 66°
2026-05-07 23:56 40.69330 -74.17366 26 ft 4 kts 103°
2026-05-07 23:57 40.69336 -74.17401 26 ft 3 kts 103°
2026-05-07 23:57 40.69337 -74.17406 26 ft 1 kts 103°
2026-05-08 00:03 40.69309 -74.17308 27 ft 15 kts 118°
2026-05-08 00:03 40.69254 -74.17187 27 ft 15 kts 117°
2026-05-08 00:04 40.69205 -74.17079 27 ft 10 kts 149°
2026-05-08 00:04 40.69135 -74.17091 27 ft 12 kts 205°
2026-05-08 00:04 40.69061 -74.17138 26 ft 12 kts 206°
2026-05-08 00:04 40.68985 -74.17186 27 ft 12 kts 206°
2026-05-08 00:05 40.68908 -74.17235 27 ft 12 kts 206°
2026-05-08 00:05 40.68831 -74.17284 27 ft 13 kts 206°
2026-05-08 00:05 40.68746 -74.17338 28 ft 14 kts 206°
2026-05-08 00:05 40.68650 -74.17399 28 ft 16 kts 206°
2026-05-08 00:06 40.68542 -74.17468 28 ft 18 kts 206°
2026-05-08 00:06 40.68422 -74.17544 28 ft 20 kts 206°
2026-05-08 00:06 40.68295 -74.17625 27 ft 20 kts 206°
2026-05-08 00:06 40.68169 -74.17705 27 ft 20 kts 205°
2026-05-08 00:07 40.68042 -74.17786 27 ft 20 kts 206°
2026-05-08 00:07 40.67915 -74.17867 27 ft 20 kts 205°
2026-05-08 00:07 40.67788 -74.17948 27 ft 20 kts 205°
2026-05-08 00:07 40.67676 -74.18019 27 ft 11 kts 206°
2026-05-08 00:08 40.67629 -74.18041 27 ft 3 kts 189°
2026-05-08 00:08 40.67623 -74.18041 27 ft 0 kts 180°
2026-05-08 00:08 40.67622 -74.18041 27 ft 0 kts 179°
2026-05-08 00:09 40.67600 -74.18029 27 ft 8 kts 150°
2026-05-08 00:09 40.67567 -74.17969 27 ft 9 kts 98°
2026-05-08 00:09 40.67603 -74.17906 27 ft 9 kts 32°
2026-05-08 00:09 40.67675 -74.17858 27 ft 22 kts 26°
2026-05-08 00:10 40.68060 -74.17615 30 ft 104 kts 25°
2026-05-08 00:10 40.68940 -74.17059 63 ft 169 kts 25°
2026-05-08 00:10 40.69973 -74.16370 941 ft 162 kts 25°
2026-05-08 00:10 40.71001 -74.15679 1756 ft 171 kts 28°
2026-05-08 00:11 40.71948 -74.14630 2219 ft 189 kts 42°
2026-05-08 00:11 40.72985 -74.13351 2459 ft 221 kts 41°
2026-05-08 00:11 40.74221 -74.11864 2441 ft 252 kts 40°
2026-05-08 00:11 40.75586 -74.10456 2414 ft 247 kts 24°
2026-05-08 00:12 40.77254 -74.10081 2821 ft 247 kts 351°
2026-05-08 00:12 40.78835 -74.10930 3629 ft 249 kts 323°
2026-05-08 00:12 40.79923 -74.12695 4214 ft 255 kts 292°
2026-05-08 00:12 40.80218 -74.14987 5243 ft 255 kts 270°
2026-05-08 00:13 40.80176 -74.17340 6241 ft 258 kts 268°
2026-05-08 00:13 40.80117 -74.19705 7238 ft 258 kts 268°
2026-05-08 00:13 40.80049 -74.22066 8257 ft 258 kts 268°
2026-05-08 00:13 40.79972 -74.24431 9259 ft 258 kts 268°
2026-05-08 00:14 40.79888 -74.26812 9895 ft 260 kts 268°
2026-05-08 00:14 40.79800 -74.29200 10021 ft 263 kts 267°
2026-05-08 00:14 40.79711 -74.31616 10033 ft 263 kts 268°
2026-05-08 00:14 40.79622 -74.34022 10026 ft 262 kts 268°
2026-05-08 00:15 40.79535 -74.36390 10077 ft 264 kts 268°
2026-05-08 00:15 40.79444 -74.38920 10278 ft 289 kts 267°
2026-05-08 00:15 40.79348 -74.41701 10503 ft 318 kts 267°
2026-05-08 00:15 40.79003 -74.44668 10744 ft 337 kts 249°
2026-05-08 00:16 40.77735 -74.47297 11574 ft 345 kts 234°
2026-05-08 00:16 40.76221 -74.49753 12898 ft 342 kts 234°
2026-05-08 00:16 40.74809 -74.52243 14268 ft 338 kts 238°
2026-05-08 00:16 40.73526 -74.54850 15369 ft 340 kts 240°
2026-05-08 00:17 40.72344 -74.57577 16350 ft 345 kts 242°
2026-05-08 00:17 40.71225 -74.60399 17373 ft 349 kts 244°
2026-05-08 00:17 40.70141 -74.63290 18380 ft 353 kts 244°
2026-05-08 00:17 40.69074 -74.66225 19261 ft 357 kts 245°
2026-05-08 00:18 40.68009 -74.69199 20160 ft 360 kts 245°
2026-05-08 00:18 40.66941 -74.72200 21062 ft 363 kts 246°
2026-05-08 00:18 40.65863 -74.75231 21929 ft 367 kts 246°
2026-05-08 00:18 40.64774 -74.78291 22757 ft 371 kts 246°
2026-05-08 00:19 40.63670 -74.81389 23530 ft 376 kts 246°
2026-05-08 00:19 40.62554 -74.84515 24226 ft 378 kts 246°
2026-05-08 00:19 40.61433 -74.87651 24965 ft 379 kts 246°
2026-05-08 00:19 40.60308 -74.90794 25691 ft 381 kts 247°
2026-05-08 00:20 40.59176 -74.93958 26362 ft 383 kts 247°
2026-05-08 00:20 40.58048 -74.97101 27008 ft 385 kts 247°
2026-05-08 00:20 40.56834 -75.00260 27643 ft 389 kts 244°
2026-05-08 00:20 40.55409 -75.03306 28247 ft 393 kts 241°
2026-05-08 00:21 40.53831 -75.06264 28825 ft 398 kts 237°
2026-05-08 00:21 40.52073 -75.09102 29353 ft 402 kts 236°
2026-05-08 00:21 40.50883 -75.10979 29652 ft 404 kts 236°
2026-05-08 00:21 40.48468 -75.14769 30311 ft 405 kts 236°
2026-05-08 00:22 40.47272 -75.16642 30677 ft 403 kts 236°
2026-05-08 00:22 40.45479 -75.19455 31222 ft 402 kts 236°
2026-05-08 00:22 40.43685 -75.22276 31740 ft 400 kts 236°
2026-05-08 00:22 40.41907 -75.25074 32233 ft 399 kts 236°
2026-05-08 00:23 40.40133 -75.27869 32692 ft 399 kts 236°
2026-05-08 00:23 40.38359 -75.30664 33162 ft 399 kts 237°
2026-05-08 00:23 40.36584 -75.33457 33626 ft 398 kts 237°
2026-05-08 00:23 40.34810 -75.36246 34030 ft 398 kts 237°
2026-05-08 00:24 40.33037 -75.39030 34330 ft 399 kts 237°
2026-05-08 00:24 40.31254 -75.41829 34614 ft 400 kts 237°
2026-05-08 00:24 40.29469 -75.44629 34925 ft 400 kts 236°
2026-05-08 00:24 40.27684 -75.47426 35226 ft 401 kts 236°
2026-05-08 00:25 40.25893 -75.50229 35508 ft 401 kts 236°
2026-05-08 00:25 40.24104 -75.53024 35789 ft 402 kts 236°
2026-05-08 00:25 40.22331 -75.55877 36060 ft 401 kts 238°
2026-05-08 00:25 40.20737 -75.58852 36313 ft 398 kts 242°
2026-05-08 00:26 40.19252 -75.61855 36576 ft 399 kts 242°
2026-05-08 00:26 40.17736 -75.64899 36862 ft 399 kts 242°
2026-05-08 00:26 40.16219 -75.67933 37125 ft 399 kts 242°
2026-05-08 00:26 40.14697 -75.70967 37400 ft 399 kts 241°
2026-05-08 00:27 40.13170 -75.74008 37643 ft 400 kts 241°
2026-05-08 00:27 40.11638 -75.77056 37792 ft 402 kts 241°
2026-05-08 00:27 40.08555 -75.83175 37868 ft 404 kts 241°
2026-05-08 00:28 40.05462 -75.89252 37874 ft 398 kts 241°
2026-05-08 00:28 40.02394 -75.95268 37873 ft 396 kts 241°
2026-05-08 00:29 39.99347 -76.01244 37874 ft 396 kts 241°
2026-05-08 00:29 39.96308 -76.07190 37868 ft 397 kts 241°
2026-05-08 00:30 39.93268 -76.13203 37861 ft 398 kts 242°
2026-05-08 00:30 39.90218 -76.19247 37848 ft 400 kts 241°
2026-05-08 00:31 39.87126 -76.25295 37861 ft 402 kts 241°
2026-05-08 00:31 39.84013 -76.31351 37854 ft 403 kts 241°
2026-05-08 00:32 39.80914 -76.37377 37862 ft 403 kts 241°
2026-05-08 00:32 39.77786 -76.43454 37856 ft 404 kts 241°
2026-05-08 00:33 39.74658 -76.49518 37864 ft 404 kts 241°
2026-05-08 00:33 39.71525 -76.55582 37859 ft 404 kts 241°
2026-05-08 00:34 39.68392 -76.61634 37861 ft 404 kts 241°
2026-05-08 00:34 39.65277 -76.67643 37876 ft 403 kts 241°
2026-05-08 00:35 39.62137 -76.73685 37878 ft 403 kts 241°
2026-05-08 00:35 39.58993 -76.79726 37882 ft 404 kts 241°
2026-05-08 00:36 39.55846 -76.85764 37887 ft 404 kts 241°
2026-05-08 00:36 39.52692 -76.91800 37884 ft 405 kts 241°
2026-05-08 00:37 39.49161 -76.97536 37895 ft 411 kts 234°
2026-05-08 00:38 39.42792 -77.05054 37886 ft 418 kts 227°
2026-05-08 00:38 39.38258 -77.09774 37895 ft 418 kts 227°
2026-05-08 00:39 39.33732 -77.14485 37905 ft 417 kts 227°
2026-05-08 00:39 39.29222 -77.19201 37903 ft 417 kts 227°
2026-05-08 00:40 39.24722 -77.23909 37906 ft 416 kts 227°
2026-05-08 00:40 39.20212 -77.28623 37902 ft 416 kts 227°
2026-05-08 00:41 39.15740 -77.33289 37907 ft 416 kts 227°
2026-05-08 00:41 39.11233 -77.37982 37909 ft 416 kts 227°
2026-05-08 00:42 39.06723 -77.42671 37904 ft 417 kts 227°
2026-05-08 00:42 39.02212 -77.47352 37899 ft 417 kts 227°
2026-05-08 00:43 38.97693 -77.52034 37895 ft 417 kts 227°
2026-05-08 00:43 38.93172 -77.56710 37898 ft 417 kts 227°
2026-05-08 00:44 38.88680 -77.61349 37892 ft 417 kts 227°
2026-05-08 00:44 38.84152 -77.66017 37909 ft 417 kts 227°
2026-05-08 00:45 38.79625 -77.70677 37924 ft 417 kts 227°
2026-05-08 00:45 38.75107 -77.75319 37929 ft 416 kts 227°
2026-05-08 00:46 38.70590 -77.79954 37927 ft 415 kts 227°
2026-05-08 00:46 38.66149 -77.84592 37931 ft 410 kts 231°
2026-05-08 00:47 38.62243 -77.89793 37945 ft 402 kts 237°
2026-05-08 00:47 38.58867 -77.95450 37940 ft 399 kts 240°
2026-05-08 00:48 38.55541 -78.01150 37939 ft 400 kts 240°
2026-05-08 00:48 38.52224 -78.06812 37937 ft 400 kts 240°
2026-05-08 00:49 38.48876 -78.12500 37932 ft 400 kts 240°
2026-05-08 00:49 38.45530 -78.18171 37930 ft 400 kts 240°
2026-05-08 00:50 38.42172 -78.23850 37930 ft 400 kts 240°
2026-05-08 00:50 38.38820 -78.29510 37929 ft 400 kts 240°
2026-05-08 00:51 38.35490 -78.35123 37924 ft 399 kts 240°
2026-05-08 00:51 38.32142 -78.40755 37919 ft 398 kts 240°
2026-05-08 00:52 38.28800 -78.46370 37923 ft 397 kts 240°
2026-05-08 00:52 38.25462 -78.51968 37921 ft 396 kts 240°
2026-05-08 00:53 38.22128 -78.57548 37917 ft 395 kts 240°
2026-05-08 00:53 38.18800 -78.63111 37920 ft 395 kts 240°
2026-05-08 00:54 38.15469 -78.68669 37915 ft 394 kts 240°
2026-05-08 00:54 38.12143 -78.74209 37927 ft 394 kts 240°
2026-05-08 00:55 38.08845 -78.79696 37939 ft 393 kts 240°
2026-05-08 00:55 38.05503 -78.85241 37930 ft 392 kts 240°
2026-05-08 00:56 38.02190 -78.90730 37923 ft 391 kts 241°
2026-05-08 00:56 37.98911 -78.96158 37937 ft 390 kts 241°
2026-05-08 00:57 37.95616 -79.01602 37934 ft 388 kts 241°
2026-05-08 00:57 37.92328 -79.07028 37947 ft 387 kts 241°
2026-05-08 00:58 37.88943 -79.12352 37966 ft 391 kts 237°
2026-05-08 00:58 37.85284 -79.17443 37996 ft 390 kts 237°
2026-05-08 00:59 37.81620 -79.22513 38001 ft 389 kts 237°
2026-05-08 00:59 37.77999 -79.27524 38017 ft 387 kts 238°
2026-05-08 01:00 37.74372 -79.32553 38039 ft 386 kts 238°
2026-05-08 01:00 37.70752 -79.37568 38030 ft 386 kts 238°
2026-05-08 01:01 37.67131 -79.42575 38030 ft 385 kts 238°
2026-05-08 01:01 37.63518 -79.47561 38017 ft 384 kts 238°
2026-05-08 01:02 37.59914 -79.52528 38005 ft 384 kts 238°
2026-05-08 01:02 37.56312 -79.57484 37982 ft 383 kts 238°
2026-05-08 01:03 37.52739 -79.62396 37947 ft 382 kts 238°
2026-05-08 01:03 37.49147 -79.67323 37939 ft 382 kts 238°
2026-05-08 01:04 37.45547 -79.72260 37951 ft 383 kts 238°
2026-05-08 01:04 37.41929 -79.77206 37961 ft 383 kts 238°
2026-05-08 01:05 37.38316 -79.82138 37953 ft 383 kts 238°
2026-05-08 01:05 37.34718 -79.87044 37959 ft 381 kts 238°
2026-05-08 01:06 37.31125 -79.91936 37965 ft 380 kts 238°
2026-05-08 01:06 37.27532 -79.96822 37962 ft 380 kts 238°
2026-05-08 01:07 37.23963 -80.01667 37976 ft 380 kts 238°
2026-05-08 01:07 37.20371 -80.06536 37970 ft 380 kts 238°
2026-05-08 01:08 37.16773 -80.11406 37957 ft 380 kts 238°
2026-05-08 01:08 37.13781 -80.15451 37976 ft 380 kts 238°
2026-05-08 01:09 37.09604 -80.21090 37980 ft 380 kts 238°
2026-05-08 01:09 37.06578 -80.25168 37976 ft 380 kts 238°
2026-05-08 01:10 37.02995 -80.29992 37974 ft 381 kts 238°
2026-05-08 01:10 36.99340 -80.34810 37972 ft 383 kts 237°
2026-05-08 01:11 36.95611 -80.39562 37968 ft 382 kts 237°
2026-05-08 01:11 36.91882 -80.44305 37959 ft 382 kts 237°
2026-05-08 01:12 36.88165 -80.49043 37950 ft 381 kts 237°
2026-05-08 01:12 36.84454 -80.53775 37970 ft 381 kts 237°
2026-05-08 01:13 36.80747 -80.58496 37977 ft 380 kts 237°
2026-05-08 01:13 36.77037 -80.63215 37977 ft 380 kts 237°
2026-05-08 01:14 36.73328 -80.67925 37979 ft 380 kts 237°
2026-05-08 01:14 36.69630 -80.72614 37977 ft 379 kts 237°
2026-05-08 01:15 36.65931 -80.77299 37976 ft 379 kts 237°
2026-05-08 01:15 36.62233 -80.81978 37956 ft 379 kts 237°
2026-05-08 01:16 36.58549 -80.86629 37961 ft 379 kts 237°
2026-05-08 01:16 36.54843 -80.91302 37944 ft 380 kts 237°
2026-05-08 01:17 36.51127 -80.95979 37952 ft 380 kts 237°
2026-05-08 01:17 36.47411 -81.00654 37963 ft 380 kts 237°
2026-05-08 01:18 36.43686 -81.05330 37977 ft 380 kts 237°
2026-05-08 01:18 36.39953 -81.10010 37984 ft 381 kts 237°
2026-05-08 01:19 36.36221 -81.14684 37984 ft 382 kts 237°
2026-05-08 01:19 36.32483 -81.19356 38004 ft 381 kts 237°
2026-05-08 01:20 36.28768 -81.23995 38000 ft 381 kts 237°
2026-05-08 01:20 36.25001 -81.28698 37980 ft 382 kts 237°
2026-05-08 01:21 36.21277 -81.33341 37976 ft 382 kts 237°
2026-05-08 01:21 36.17524 -81.38012 37973 ft 383 kts 237°
2026-05-08 01:22 36.13765 -81.42687 37947 ft 383 kts 237°
2026-05-08 01:22 36.10005 -81.47355 37943 ft 383 kts 237°
2026-05-08 01:23 36.07255 -81.50763 37945 ft 382 kts 237°
2026-05-08 01:23 36.03525 -81.55385 37976 ft 381 kts 237°
2026-05-08 01:24 35.99747 -81.60053 37992 ft 381 kts 237°
2026-05-08 01:24 35.96012 -81.64668 37999 ft 382 kts 237°
2026-05-08 01:25 35.92249 -81.69310 37997 ft 382 kts 236°
2026-05-08 01:25 35.88482 -81.73949 38001 ft 383 kts 236°
2026-05-08 01:26 35.84706 -81.78594 37993 ft 383 kts 236°
2026-05-08 01:26 35.80931 -81.83231 37983 ft 383 kts 236°
2026-05-08 01:27 35.77162 -81.87821 37970 ft 384 kts 236°
2026-05-08 01:27 35.73323 -81.92409 37961 ft 385 kts 236°
2026-05-08 01:28 35.69479 -81.96996 37956 ft 385 kts 236°
2026-05-08 01:28 35.65631 -82.01590 37972 ft 385 kts 236°
2026-05-08 01:29 35.61808 -82.06151 37976 ft 385 kts 236°
2026-05-08 01:29 35.57957 -82.10741 37978 ft 386 kts 235°
2026-05-08 01:30 35.54091 -82.15340 37973 ft 387 kts 235°
2026-05-08 01:30 35.50224 -82.19938 37965 ft 387 kts 235°
2026-05-08 01:31 35.46368 -82.24510 37963 ft 384 kts 235°
2026-05-08 01:31 35.42518 -82.29077 37997 ft 386 kts 235°
2026-05-08 01:32 35.38721 -82.33756 37994 ft 388 kts 236°
2026-05-08 01:32 35.34938 -82.38485 37999 ft 389 kts 236°
2026-05-08 01:33 35.31136 -82.43217 38004 ft 390 kts 236°
2026-05-08 01:33 35.27319 -82.47949 37998 ft 391 kts 236°
2026-05-08 01:34 35.23515 -82.52657 37986 ft 391 kts 236°
2026-05-08 01:34 35.19691 -82.57384 37976 ft 391 kts 236°
2026-05-08 01:35 35.15862 -82.62106 37960 ft 391 kts 236°
2026-05-08 01:35 35.11960 -82.66772 37946 ft 392 kts 235°
2026-05-08 01:36 35.08037 -82.71404 37930 ft 392 kts 235°
2026-05-08 01:36 35.06114 -82.73675 37760 ft 388 kts 235°
2026-05-08 01:36 35.04176 -82.75969 37352 ft 389 kts 235°
2026-05-08 01:36 35.02230 -82.78281 36833 ft 392 kts 235°
2026-05-08 01:37 35.00270 -82.80610 36363 ft 394 kts 234°
2026-05-08 01:37 34.96356 -82.85232 36261 ft 390 kts 234°
2026-05-08 01:38 34.92423 -82.89872 36259 ft 398 kts 234°
2026-05-08 01:38 34.88390 -82.94543 36211 ft 398 kts 233°
2026-05-08 01:38 34.86383 -82.96853 35995 ft 396 kts 233°
2026-05-08 01:39 34.84382 -82.99163 35586 ft 397 kts 233°
2026-05-08 01:39 34.82371 -83.01490 35150 ft 399 kts 233°
2026-05-08 01:39 34.80353 -83.03824 34717 ft 401 kts 233°
2026-05-08 01:39 34.78354 -83.06134 34316 ft 402 kts 233°
2026-05-08 01:40 34.76321 -83.08480 33873 ft 403 kts 232°
2026-05-08 01:40 34.74274 -83.10839 33274 ft 405 kts 232°
2026-05-08 01:40 34.72212 -83.13215 32306 ft 409 kts 233°
2026-05-08 01:40 34.70149 -83.15589 31382 ft 408 kts 233°
2026-05-08 01:41 34.68091 -83.17950 30646 ft 404 kts 233°
2026-05-08 01:41 34.66051 -83.20290 29861 ft 401 kts 233°
2026-05-08 01:41 34.64033 -83.22608 29058 ft 397 kts 233°
2026-05-08 01:41 34.62039 -83.24899 28284 ft 393 kts 233°
2026-05-08 01:42 34.60085 -83.27138 27218 ft 379 kts 233°
2026-05-08 01:42 34.58207 -83.29291 25833 ft 375 kts 232°
2026-05-08 01:42 34.56312 -83.31467 24981 ft 371 kts 232°
2026-05-08 01:42 34.54437 -83.33620 24321 ft 370 kts 232°
2026-05-08 01:43 34.52576 -83.35760 23697 ft 369 kts 232°
2026-05-08 01:43 34.50712 -83.37905 22969 ft 368 kts 232°
2026-05-08 01:43 34.48870 -83.40022 22300 ft 365 kts 232°
2026-05-08 01:43 34.47029 -83.42136 21680 ft 362 kts 232°
2026-05-08 01:44 34.45201 -83.44234 21066 ft 360 kts 232°
2026-05-08 01:44 34.43386 -83.46318 20465 ft 358 kts 232°
2026-05-08 01:44 34.41580 -83.48390 19866 ft 357 kts 231°
2026-05-08 01:44 34.39781 -83.50452 19293 ft 355 kts 231°
2026-05-08 01:45 34.37981 -83.52514 18681 ft 355 kts 231°
2026-05-08 01:45 34.36187 -83.54570 18044 ft 355 kts 231°
2026-05-08 01:45 34.34419 -83.56593 17389 ft 354 kts 231°
2026-05-08 01:45 34.32634 -83.58634 16777 ft 352 kts 231°
2026-05-08 01:46 34.30859 -83.60661 16212 ft 350 kts 231°
2026-05-08 01:46 34.29112 -83.62649 15866 ft 340 kts 231°
2026-05-08 01:46 34.27345 -83.64604 15106 ft 347 kts 229°
2026-05-08 01:46 34.25533 -83.66532 14510 ft 347 kts 228°
2026-05-08 01:47 34.23713 -83.68449 13938 ft 346 kts 228°
2026-05-08 01:47 34.21896 -83.70365 13314 ft 345 kts 228°
2026-05-08 01:47 34.20093 -83.72271 12841 ft 340 kts 228°
2026-05-08 01:48 34.16680 -83.75879 12550 ft 313 kts 229°
2026-05-08 01:48 34.15076 -83.77583 12411 ft 301 kts 229°
2026-05-08 01:48 34.13530 -83.79225 12277 ft 290 kts 229°
2026-05-08 01:48 34.12043 -83.80803 12154 ft 279 kts 229°
2026-05-08 01:49 34.10579 -83.82357 11498 ft 285 kts 228°
2026-05-08 01:49 34.08862 -83.83713 10900 ft 298 kts 216°
2026-05-08 01:49 34.07046 -83.84815 10833 ft 287 kts 214°
2026-05-08 01:49 34.05299 -83.85819 10750 ft 276 kts 214°
2026-05-08 01:50 34.03587 -83.86785 10587 ft 268 kts 214°
2026-05-08 01:50 34.01913 -83.87717 10461 ft 260 kts 214°
2026-05-08 01:50 34.00294 -83.88608 10346 ft 251 kts 214°
2026-05-08 01:50 33.98730 -83.89457 10244 ft 242 kts 214°
2026-05-08 01:51 33.97197 -83.90282 10124 ft 245 kts 214°
2026-05-08 01:51 33.95614 -83.91154 9968 ft 256 kts 214°
2026-05-08 01:51 33.93994 -83.92060 9844 ft 255 kts 214°
2026-05-08 01:51 33.92408 -83.92954 9571 ft 254 kts 214°
2026-05-08 01:52 33.90816 -83.93857 9190 ft 249 kts 214°
2026-05-08 01:52 33.89248 -83.94755 8481 ft 251 kts 214°
2026-05-08 01:52 33.87673 -83.95680 7804 ft 251 kts 213°
2026-05-08 01:52 33.86093 -83.96638 7161 ft 251 kts 214°
2026-05-08 01:53 33.84564 -83.97585 6583 ft 250 kts 214°
2026-05-08 01:53 33.83037 -83.98546 6216 ft 247 kts 214°
2026-05-08 01:53 33.81545 -83.99488 6032 ft 239 kts 214°
2026-05-08 01:53 33.80102 -84.00403 5999 ft 228 kts 214°
2026-05-08 01:54 33.78732 -84.01265 5981 ft 218 kts 214°
2026-05-08 01:54 33.77815 -84.01837 5958 ft 219 kts 214°
2026-05-08 01:54 33.76464 -84.02686 5673 ft 220 kts 214°
2026-05-08 01:54 33.75109 -84.03547 5279 ft 220 kts 214°
2026-05-08 01:55 33.73757 -84.04422 5052 ft 225 kts 214°
2026-05-08 01:55 33.72392 -84.05317 5043 ft 219 kts 214°
2026-05-08 01:55 33.71120 -84.06174 5024 ft 204 kts 223°
2026-05-08 01:55 33.70405 -84.07478 4968 ft 182 kts 267°
2026-05-08 01:56 33.70418 -84.08999 5034 ft 196 kts 270°
2026-05-08 01:56 33.70331 -84.10695 5002 ft 207 kts 265°
2026-05-08 01:56 33.70109 -84.12444 4733 ft 214 kts 261°
2026-05-08 01:56 33.69787 -84.14192 4500 ft 213 kts 258°
2026-05-08 01:57 33.69405 -84.15870 4381 ft 205 kts 256°
2026-05-08 01:57 33.68990 -84.17495 4309 ft 204 kts 255°
2026-05-08 01:57 33.68538 -84.19139 4246 ft 211 kts 254°
2026-05-08 01:57 33.68048 -84.20818 4152 ft 214 kts 253°
2026-05-08 01:58 33.67537 -84.22487 3996 ft 211 kts 252°
2026-05-08 01:58 33.67024 -84.24114 3791 ft 206 kts 252°
2026-05-08 01:58 33.66514 -84.25709 3540 ft 203 kts 252°
2026-05-08 01:58 33.66008 -84.27282 3289 ft 200 kts 252°
2026-05-08 01:59 33.65509 -84.28824 3092 ft 194 kts 252°
2026-05-08 01:59 33.65110 -84.30301 3041 ft 180 kts 266°
2026-05-08 01:59 33.64982 -84.31746 2963 ft 172 kts 267°
2026-05-08 01:59 33.64878 -84.33164 2634 ft 168 kts 272°
2026-05-08 02:00 33.64910 -84.34556 2232 ft 162 kts 277°
2026-05-08 02:00 33.64936 -84.35844 1974 ft 149 kts 273°
2026-05-08 02:00 33.64924 -84.37028 1671 ft 140 kts 274°
2026-05-08 02:00 33.64947 -84.38157 1608 ft 136 kts 274°
2026-05-08 02:01 33.64946 -84.39321 1406 ft 142 kts 272°
2026-05-08 02:01 33.64949 -84.40512 1202 ft 143 kts 273°
2026-05-08 02:01 33.64952 -84.41666 1066 ft 140 kts 272°
2026-05-08 02:01 33.64953 -84.42786 1040 ft 116 kts 270°
2026-05-08 02:02 33.64953 -84.43518 1040 ft 47 kts 270°
2026-05-08 02:02 33.64944 -84.43702 1038 ft 20 kts 246°
2026-05-08 02:02 33.64886 -84.43757 1040 ft 0 kts 202°
2026-05-08 02:03 33.64881 -84.43757 1040 ft 4 kts 191°
2026-05-08 02:03 33.64852 -84.43728 1040 ft 9 kts 111°
2026-05-08 02:04 33.64844 -84.43619 1041 ft 14 kts 89°
2026-05-08 02:04 33.64844 -84.43499 1040 ft 14 kts 90°
2026-05-08 02:04 33.64834 -84.43381 1040 ft 15 kts 111°
2026-05-08 02:04 33.64797 -84.43267 1041 ft 15 kts 104°
2026-05-08 02:05 33.64789 -84.43143 1041 ft 15 kts 89°
2026-05-08 02:05 33.64790 -84.43018 1041 ft 15 kts 90°
2026-05-08 02:05 33.64790 -84.42893 1040 ft 15 kts 90°
2026-05-08 02:05 33.64790 -84.42767 1040 ft 15 kts 90°
2026-05-08 02:06 33.64790 -84.42642 1040 ft 15 kts 90°
2026-05-08 02:06 33.64790 -84.42517 1040 ft 15 kts 90°
2026-05-08 02:06 33.64790 -84.42391 1040 ft 15 kts 90°
2026-05-08 02:06 33.64776 -84.42268 1040 ft 11 kts 121°
2026-05-08 02:07 33.64769 -84.42260 1039 ft 5 kts 140°
2026-05-08 02:07 33.64689 -84.42239 1038 ft 19 kts 178°
2026-05-08 02:07 33.64597 -84.42241 1039 ft 8 kts 180°
2026-05-08 02:07 33.64595 -84.42241 1039 ft 0 kts 180°
2026-05-08 02:08 33.64574 -84.42241 1039 ft 4 kts 185°
2026-05-08 02:08 33.64542 -84.42244 1040 ft 5 kts 183°
2026-05-08 02:09 33.64505 -84.42250 1040 ft 6 kts 190°
2026-05-08 02:09 33.64476 -84.42281 1040 ft 6 kts 242°
2026-05-08 02:09 33.64470 -84.42344 1040 ft 9 kts 270°
2026-05-08 02:09 33.64469 -84.42419 1040 ft 9 kts 269°
2026-05-08 02:10 33.64469 -84.42497 1040 ft 9 kts 270°
2026-05-08 02:10 33.64469 -84.42577 1040 ft 10 kts 269°
2026-05-08 02:10 33.64469 -84.42657 1040 ft 10 kts 269°
2026-05-08 02:10 33.64434 -84.42719 1040 ft 10 kts 198°
2026-05-08 02:11 33.64362 -84.42735 1040 ft 11 kts 182°
2026-05-08 02:11 33.64286 -84.42728 1040 ft 11 kts 155°
2026-05-08 02:11 33.64249 -84.42677 1040 ft 2 kts 104°
2026-05-08 02:11 33.64248 -84.42657 1040 ft 3 kts 92°
2026-05-08 02:12 33.64247 -84.42650 1040 ft 0 kts 92°
2026-05-08 02:12 33.64247 -84.42648 1040 ft 1 kts 92°
2026-05-08 02:12 33.64247 -84.42641 1040 ft 0 kts 92°